Weather History for Auburn, AL

Change the Weather History Date:

Saturday, October 13, 2012

  Actual Average Record
Temperature  
Mean Temperature 70 °F -  
Max Temperature 79 °F - 89 °F (1975)
Min Temperature 61 °F - 40 °F (1977)
Degree Days  
Heating Degree Days 0    
Month to date heating degree days 8  
Since 1 July heating degree days 8  
Cooling Degree Days 5    
Month to date cooling degree days 37  
Year to date cooling degree days 2033  
Growing Degree Days 18 (Base 50)    
Moisture  
Dew Point 59 °F    
Average Humidity 71    
Maximum Humidity 88    
Minimum Humidity 54    
Precipitation  
Precipitation 0.00 in - 5.00 in (2006)
Month to date precipitation 0.43  
Year to date precipitation 22.07  
Sea Level Pressure  
Sea Level Pressure 30.24 in    
Wind  
Wind Speed 8 mph (East)    
Max Wind Speed 15 mph    
Max Gust Speed 23 mph    
Visibility 10 miles    
Events      
T = Trace of Precipitation, MM = Missing Value Source: NWS Daily Summary

Daily Weather History Graph

Daily Weather History Graph

Search for Another Location

Airport:

Trip Planner

Search our weather history database for the weather conditions in past years. The results will help you decide how hot, cold, wet, or windy it might be!

Date:

Astronomy

Oct. 13, 2012 Rise Set
Actual Time 6:44 AM CDT 6:10 PM CDT
Civil Twilight 6:19 AM CDT 6:35 PM CDT
Nautical Twilight 5:51 AM CDT 7:03 PM CDT
Astronomical Twilight 5:22 AM CDT 7:32 PM CDT
Moon 4:38 AM CDT (10/13) 4:50 PM CDT (10/13)
Length of Visible Light 12h 15m
Length of Day
11h 26m
Waning Crescent, 5% of the Moon is Illuminated
Oct 13
Waning Crescent
Oct 15
New
Oct 21
First Quarter
Oct 29
Full
Nov 6
Last Quarter

Hourly Weather History & Observations

Time (CDT) Temp. Dew Point Humidity Pressure Visibility Wind Dir Wind Speed Gust Speed Precip Events Conditions
12:15 AM 66.2 °F 60.8 °F 83% 30.23 in 10.0 mi NE 9.2 mph - N/A   Clear
12:55 AM 66.2 °F 59.0 °F 78% 30.23 in 10.0 mi NE 8.1 mph - N/A   Clear
1:15 AM 66.2 °F 59.0 °F 78% 30.23 in 10.0 mi NE 9.2 mph - N/A   Clear
1:35 AM 64.4 °F 59.0 °F 83% 30.23 in 10.0 mi NNE 9.2 mph - N/A   Clear
1:55 AM 64.4 °F 59.0 °F 83% 30.23 in 10.0 mi NE 6.9 mph - N/A   Clear
2:15 AM 64.4 °F 59.0 °F 83% 30.23 in 10.0 mi NNE 6.9 mph - N/A   Clear
2:35 AM 64.4 °F 59.0 °F 83% 30.22 in 10.0 mi NNE 6.9 mph - N/A   Clear
2:55 AM 64.4 °F 59.0 °F 83% 30.22 in 10.0 mi NNE 5.8 mph - N/A   Clear
3:15 AM 62.6 °F 57.2 °F 82% 30.23 in 10.0 mi NNE 5.8 mph - N/A   Clear
3:35 AM 62.6 °F 57.2 °F 82% 30.23 in 10.0 mi NNE 6.9 mph - N/A   Clear
3:55 AM 62.6 °F 59.0 °F 88% 30.23 in 10.0 mi NE 6.9 mph - N/A   Clear
4:15 AM 64.4 °F 59.0 °F 83% 30.24 in 10.0 mi ENE 6.9 mph - N/A   Clear
4:35 AM 64.4 °F 59.0 °F 83% 30.23 in 10.0 mi ENE 8.1 mph - N/A   Clear
4:55 AM 64.4 °F 59.0 °F 83% 30.23 in 10.0 mi NE 10.4 mph - N/A   Clear
5:15 AM 64.4 °F 57.2 °F 77% 30.24 in 10.0 mi NE 9.2 mph - N/A   Clear
5:55 AM 62.6 °F 57.2 °F 82% 30.25 in 10.0 mi NE 8.1 mph - N/A   Clear
6:15 AM 62.6 °F 57.2 °F 82% 30.25 in 10.0 mi NNE 8.1 mph - N/A   Clear
6:35 AM 60.8 °F 57.2 °F 88% 30.25 in 10.0 mi NNE 8.1 mph - N/A   Clear
6:55 AM 60.8 °F 57.2 °F 88% 30.26 in 10.0 mi NE 6.9 mph - N/A   Clear
7:15 AM 60.8 °F 57.2 °F 88% 30.26 in 10.0 mi NE 8.1 mph - N/A   Clear
7:35 AM 62.6 °F 57.2 °F 82% 30.27 in 10.0 mi ENE 9.2 mph - N/A   Clear
7:55 AM 64.4 °F 57.2 °F 77% 30.28 in 10.0 mi East 9.2 mph - N/A   Clear
8:15 AM 64.4 °F 59.0 °F 83% 30.27 in 10.0 mi East 11.5 mph - N/A   Clear
8:55 AM 69.8 °F 60.8 °F 73% 30.28 in 10.0 mi East 12.7 mph 18.4 mph N/A   Clear
9:35 AM 71.6 °F 60.8 °F 69% 30.30 in 10.0 mi ESE 11.5 mph - N/A   Clear
9:55 AM 71.6 °F 60.8 °F 69% 30.30 in 10.0 mi ESE 15.0 mph 23.0 mph N/A   Clear
10:15 AM 71.6 °F 60.8 °F 69% 30.30 in 10.0 mi ESE 11.5 mph - N/A   Partly Cloudy
10:35 AM 71.6 °F 60.8 °F 69% 30.30 in 10.0 mi ESE 9.2 mph 19.6 mph N/A   Mostly Cloudy
10:55 AM 73.4 °F 60.8 °F 65% 30.30 in 10.0 mi ESE 10.4 mph - N/A   Mostly Cloudy
11:15 AM 73.4 °F 62.6 °F 69% 30.29 in 10.0 mi ESE 11.5 mph 16.1 mph N/A   Mostly Cloudy
11:35 AM 73.4 °F 62.6 °F 69% 30.29 in 10.0 mi East 8.1 mph - N/A   Overcast
11:55 AM 73.4 °F 62.6 °F 69% 30.28 in 10.0 mi SSE 9.2 mph - N/A   Overcast
12:35 PM 75.2 °F 62.6 °F 65% 30.26 in 10.0 mi SE 10.4 mph - N/A   Overcast
12:55 PM 75.2 °F 62.6 °F 65% 30.25 in 10.0 mi ESE 10.4 mph - N/A   Overcast
1:15 PM 75.2 °F 60.8 °F 61% 30.24 in 10.0 mi ESE 6.9 mph 17.3 mph N/A   Overcast
1:35 PM 75.2 °F 62.6 °F 65% 30.23 in 10.0 mi SE 5.8 mph - N/A   Mostly Cloudy
1:55 PM 75.2 °F 60.8 °F 61% 30.22 in 10.0 mi SE 6.9 mph - N/A   Scattered Clouds
2:15 PM 77.0 °F 60.8 °F 57% 30.22 in 10.0 mi SE 10.4 mph - N/A   Mostly Cloudy
2:35 PM 77.0 °F 60.8 °F 57% 30.21 in 10.0 mi SE 8.1 mph - N/A   Mostly Cloudy
3:15 PM 77.0 °F 60.8 °F 57% 30.21 in 10.0 mi SE 8.1 mph - N/A   Scattered Clouds
3:35 PM 77.0 °F 60.8 °F 57% 30.21 in 10.0 mi SSE 9.2 mph - N/A   Partly Cloudy
3:55 PM 77.0 °F 60.8 °F 57% 30.21 in 10.0 mi SE 8.1 mph - N/A   Partly Cloudy
4:15 PM 77.0 °F 60.8 °F 57% 30.20 in 10.0 mi SE 6.9 mph - N/A   Clear
4:35 PM 77.0 °F 60.8 °F 57% 30.20 in 10.0 mi SE 8.1 mph - N/A   Clear
4:55 PM 77.0 °F 59.0 °F 54% 30.20 in 10.0 mi SSE 10.4 mph - N/A   Clear
5:15 PM 75.2 °F 59.0 °F 57% 30.20 in 10.0 mi SSE 9.2 mph - N/A   Clear
5:35 PM 75.2 °F 60.8 °F 61% 30.20 in 10.0 mi SE 5.8 mph - N/A   Clear
6:15 PM 73.4 °F 60.8 °F 65% 30.20 in 10.0 mi ESE 3.5 mph - N/A   Scattered Clouds
6:35 PM 71.6 °F 59.0 °F 64% 30.20 in 10.0 mi ESE 3.5 mph - N/A   Partly Cloudy
6:55 PM 71.6 °F 59.0 °F 64% 30.20 in 10.0 mi ESE 3.5 mph - N/A   Clear
7:35 PM 69.8 °F 59.0 °F 68% 30.21 in 10.0 mi ESE 4.6 mph - N/A   Clear
7:55 PM 69.8 °F 59.0 °F 68% 30.21 in 10.0 mi ESE 4.6 mph - N/A   Clear
9:15 PM 68.0 °F 55.4 °F 64% 30.22 in 10.0 mi East 6.9 mph - N/A   Clear
9:35 PM 68.0 °F 55.4 °F 64% 30.21 in 10.0 mi East 8.1 mph - N/A   Clear
9:55 PM 68.0 °F 55.4 °F 64% 30.22 in 10.0 mi East 8.1 mph - N/A   Clear
10:15 PM 66.2 °F 55.4 °F 68% 30.22 in 10.0 mi East 6.9 mph - N/A   Clear
11:15 PM 66.2 °F 55.4 °F 68% 30.21 in 10.0 mi East 8.1 mph - N/A   Clear
11:35 PM 66.2 °F 55.4 °F 68% 30.21 in 10.0 mi ESE 6.9 mph - N/A   Clear